Terminal Aerodrome Forecast
Issued by NWS

Home | Current Version | Previous Version | Text Only | Print | Product List | Glossary On
Versions: 1 2 3 4 5 6 7 8 9 10 11 12 13
000
FTUS42 KMLB 211700
TAFSFB
TAF
KSFB 211735Z 2118/2218 34006KT P6SM SCT045
     FM212100 11008KT P6SM SCT050 SCT250
     FM220100 15004KT P6SM FEW050 SCT250
     FM220600 20003KT P6SM FEW250
     FM221400 23004KT P6SM FEW040=

USA.gov is the U.S. government's official web portal to all federal, state and local government web resources and services.